471  
ASUS42 KKEY 161110  
RWRKEY  
 
FLORIDA KEYS REGIONAL WEATHER ROUNDUP  
NATIONAL WEATHER SERVICE KEY WEST FLORIDA  
700 AM EDT WED OCT 16 2019  
   
..SOUTH FLORIDA AND THE KEYS
 
 
 
CITY SKY/WX TMP DP RH WIND PRES REMARKS
 
FORT MYERS FAIR 77 73 87 S5 29.94R  
SW REGIONAL AP FAIR 76 74 93 SE5 29.95R  
NAPLES FAIR 77 74 90 E3 29.94S  
MIAMI FAIR 78 72 81 CALM 29.96R  
WEST KENDALL FAIR 74 73 97 CALM 29.96R  
HOMESTEAD FAIR 75 74 95 CALM 29.94S  
MARATHON FAIR 81 76 84 SE3 29.95R  
BOCA CHICA NAS FAIR 81 74 79 S7 29.95S  
KEY WEST INTL FAIR 83 75 77 S7 29.95S HX 90  
   
..INTERNATIONAL WEATHER
 
 
 
CITY SKY/WX TMP DP RH WIND PRES REMARKS
 
NASSAU PTCLDY 72 70 94 CALM 29.99S  
HAVANA PTCLDY 72 72 100 VRB1 29.97R  
VARADERO PTCLDY 73 73 100 S6 29.97S  
CANCUN PTCLDY 82 75 78 SE8 29.90R  
COZUMEL PTCLDY 77 75 94 CALM 29.88R  
KINGSTON PTCLDY 81 73 78 VRB2 29.94R  
BELIZE CITY PTCLDY 81 81 100 SE3 29.83 HX 91  
   
..ADJACENT COASTAL WATERS
 
 
 
STATION/POSITION TIME SKY/WX TEMP WIND PRES WAVE
 
AIR SEA DIR/SP/G HT/PER  
(UTC) (F) (DEG/KT/KT) (MB) (FT/S)  
PULASKI SHOAL LI 1045 83 210/ 5/ 6 1014.0F  
SAND KEY 1050 83 190/ 8/ 10 1012.9R  
SOMBRERO KEY 1050 82 150/ 6/ 8 N/A  
LONG KEY 1050 82 1013.3R  
MOLASSES REEF NOT AVBL  
FOWEY ROCKS 1100 81 83 150/ 11/ 12 1014.6R  
BUOY 42095 1030 85 N/A 2/ 5  
BUOY 42097 1100 84 N/A 1/ 4  
 

 
 
 
CLICK HERE TO GO TO PREVIOUS BULLETINS.

The Nexlab FL Page Main Text Page